Location: Cedrowice
(51.9912°N, 19.2761°E)
Time: 06:44:11
(UTC+00:00)

Daily predictions for brighter satellites

Satellite Brightness Start Highest point End
(mag) Time Altitude Azimuth Time Altitude Azimuth Time Altitude Azimuth
NOSS 2-2 (D) 4.4 15:46:33 10° NW 15:51:37 68° NE 15:58:41 10° SE
CZ-4C R/B 3.7 15:46:32 10° WNW 15:51:51 30° N 15:58:06 10° ENE
Cosmos 1602 Rocket 4.2 15:49:11 10° NNW 15:53:39 64° W 15:58:04 10° S
CZ-4 R/B 2.7 15:52:21 10° ESE 15:55:00 18° ENE 15:57:39 10° NNE
Cosmos 1356 Rocket 3.6 15:53:22 10° SSW 15:57:40 84° WNW 16:02:01 10° NNE
NOAA 12 4.1 15:53:37 10° SSE 15:58:55 83° ENE 16:04:17 10° NNW
Cosmos 1408 4.4 15:57:11 10° NE 15:58:55 13° ENE 16:00:39 10° E
CZ-4C R/B 3.4 15:57:42 10° N 16:00:55 63° WNW 16:04:12 10° SSW
NOSS 2-1 (C) 4.1 15:59:01 10° WSW 16:02:13 40° NNW 16:05:53 10° NE
Cosmos 1953 Rocket 3.8 15:58:46 10° N 16:03:04 49° ENE 16:07:22 10° SSE
Cosmos 1697 Rocket 4.4 16:03:31 10° ESE 16:05:14 11° E 16:06:57 10° ENE
Cosmos 1331 Rocket 4.2 16:02:00 10° S 16:06:56 48° ESE 16:11:53 10° NE
NOSS 2-1 (D) 4.2 16:04:20 10° WSW 16:07:29 37° NNW 16:11:07 10° NE
Cosmos 1300 3.3 16:05:12 10° SSE 16:08:41 35° E 16:12:12 10° NNE
IRS-1C Rocket 4.3 16:03:47 10° SE 16:08:49 48° ENE 16:13:54 10° N
Cosmos 2058 Rocket 4.0 16:06:00 10° SE 16:09:47 27° E 16:13:37 10° NNE
SL-4 R/B 1.7 16:06:22 10° W 16:09:53 85° S 16:13:29 11° E
SeaSat 1 3.7 16:07:13 10° E 16:11:04 23° NE 16:14:57 10° NNW
USA 215 3.6 16:04:45 10° ENE 16:11:08 58° N 16:17:32 10° WNW
ATLAS 2AS CENTAUR R/B 3.7 16:04:04 10° NW 16:11:15 38° NNE 16:17:50 11° E
Cosmos 1703 4.3 16:07:33 10° NNW 16:11:23 50° W 16:15:13 10° S
Cosmos 1346 Rocket 4.1 16:09:24 10° NNE 16:12:30 21° ENE 16:15:36 10° ESE
H-2A R/B 4.4 16:08:45 10° SSW 16:12:55 38° W 16:17:09 10° NNW
USA 305 2.9 16:08:42 10° WNW 16:13:02 76° NNE 16:17:17 10° E
CZ-2D R/B 3.9 16:11:04 10° SE 16:14:28 32° ENE 16:17:53 10° N
Cosmos 1953 3.8 16:11:37 10° SW 16:15:22 40° WNW 16:19:10 10° N
Cosmos 1825 4.0 16:13:26 10° NNE 16:15:25 14° ENE 16:16:47 12° E
NOAA 11 4.1 16:10:02 10° SSE 16:15:27 74° ENE 16:20:54 10° NNW
Cosmos 44 3.8 16:11:39 10° S 16:15:50 38° ESE 16:20:17 10° NE
USA 306 2.9 16:15:07 10° WNW 16:19:26 78° NNE 16:23:25 12° E
Cosmos 1818 4.3 16:15:40 10° WSW 16:20:59 53° NW 16:26:21 10° NE
Cosmos 968 Rocket 3.8 16:16:58 10° NNW 16:22:02 46° ENE 16:27:01 10° SE
ERS-2 2.0 16:20:26 10° NNE 16:24:05 69° ESE 16:27:43 10° S
SAR-Lupe-4 4.0 16:20:47 10° NNE 16:24:10 38° E 16:27:33 10° S
Cosmos 2297 Rocket 2.2 16:18:54 10° NNW 16:24:35 71° ENE 16:30:15 10° SE
Cosmos 2369 Rocket 3.8 16:20:15 10° WSW 16:25:18 32° NW 16:30:25 10° NNE
Aureole 3 Rocket 3.8 16:22:04 10° SSE 16:25:58 39° E 16:31:13 10° NNE
In-Cosmos 22 Rocket 4.2 16:22:10 10° N 16:27:25 53° ENE 16:32:44 10° SSE
Cosmos 1340 2.8 16:24:44 10° N 16:28:27 50° ENE 16:32:07 10° SSE
COSMO-SKYMED 1 3.0 16:25:57 10° NNE 16:30:04 39° E 16:34:08 10° SSE
H-2A R/B 3.0 16:27:59 10° N 16:32:01 47° WNW 16:35:59 10° SW
Cosmos 1110 Rocket 4.0 16:30:14 10° SSW 16:35:29 86° ESE 16:40:44 10° NNE
Cosmos 1302 Rocket 4.3 16:32:51 10° S 16:37:52 47° ESE 16:42:58 10° NE
Cosmos 1825 Rocket 4.5 16:35:28 10° NNW 16:39:49 53° W 16:44:07 10° S
Lacrosse 5 2.4 16:35:39 10° W 16:40:35 49° N 16:44:18 17° ENE
ADEOS Rocket 3.9 16:35:49 10° N 16:41:56 57° WNW 16:48:42 10° SW
SAR-Lupe-1 4.1 16:38:32 10° NNE 16:42:06 57° ESE 16:45:38 10° S
Cosmos 1486 Rocket 4.0 16:36:57 10° NNW 16:42:18 67° ENE 16:47:36 10° SE
Cosmos 292 Rocket 3.7 16:39:57 10° SSW 16:44:43 74° ESE 16:49:34 10° NNE
Aureole 3 2.8 16:42:01 10° S 16:45:00 47° E 16:47:53 10° NNE
Okean O Rocket 3.4 16:42:02 10° SSW 16:46:01 34° W 16:50:02 10° NNW
FALCON 9 DEB 3.1 16:43:41 10° W 16:47:07 75° N 16:48:52 26° E
YAOGAN 1 2.7 16:43:31 10° SE 16:47:41 49° ENE 16:51:53 10° N
Meteor 2-8 Rocket 4.4 16:42:19 10° S 16:48:18 60° E 16:54:21 10° NNE
ERBS 3.4 16:46:28 10° WNW 16:49:33 33° N 16:51:09 21° NE
FALCON 9 DEB 3.8 16:47:04 10° SW 16:50:03 35° SSE 16:51:05 27° ESE
Cosmos 1503 Rocket 4.2 16:46:58 10° NNW 16:52:03 49° ENE 16:56:47 12° SE
CZ-2C R/B 3.3 16:48:21 10° SSE 16:54:01 60° ENE 16:59:32 10° N
SKYMED 3 4.5 16:49:50 10° NNE 16:54:11 66° ESE 16:58:30 10° S
FALCON 9 DEB 3.6 16:51:16 10° SW 16:54:17 39° SSE 16:55:10 31° ESE
Cosmos 2219 3.5 16:49:04 10° NNW 16:54:50 73° WSW 17:00:34 10° SSE
Cosmos 1455 3.4 16:54:03 10° SSE 16:56:10 23° ESE 16:56:10 23° ESE
Cosmos 1726 Rocket 3.8 16:54:07 10° SSW 16:58:28 73° WNW 17:02:54 10° N
Cosmos 1943 Rocket 4.4 16:56:09 10° WNW 16:59:47 17° NNW 17:03:24 10° NNE
Cosmos 1553 Rocket 4.0 16:55:09 10° S 17:01:24 63° E 17:07:35 10° NNE
USA 307 2.9 16:58:05 10° WNW 17:02:23 79° SSW 17:04:41 27° ESE
Cosmos 1354 Rocket 4.1 16:58:25 10° NNW 17:03:35 54° ENE 17:07:26 18° SE
Cosmos 2082 3.7 16:57:51 10° NNW 17:03:36 68° NE 17:08:49 13° SE
CZ-4B R/B 2.7 17:00:59 10° N 17:04:05 40° WNW 17:07:05 10° SW
Meteor 2-10 Rocket 3.7 16:59:19 10° SSE 17:04:19 45° E 17:09:12 10° NNE
Cosmos 2228 4.1 17:01:30 10° SSW 17:05:37 47° WNW 17:09:48 10° N
Cosmos 1939 Rocket 3.5 17:01:51 10° S 17:05:44 57° W 17:09:36 10° NNW
FALCON 9 DEB 3.4 17:03:08 10° SW 17:06:15 44° SSE 17:06:44 40° SE
USA 308 3.0 17:02:55 10° WNW 17:07:13 76° SSW 17:09:20 29° ESE
Cosmos 2278 Rocket 4.5 17:06:50 10° NNW 17:08:19 11° N 17:09:48 10° NNE
ATLAS 5 CENTAUR R/B 3.5 17:06:22 10° WNW 17:10:08 24° N 17:13:30 14° NE
Helios 1A Rocket 3.2 17:08:45 10° S 17:12:51 68° WSW 17:16:58 10° NNW
Cosmos 1992 Rocket 4.3 17:12:07 10° S 17:17:00 42° ESE 17:19:35 25° NE
ARGOS 3.3 17:13:10 15° SE 17:17:28 52° ENE 17:22:44 10° N
FALCON 9 DEB 3.1 17:14:43 10° SW 17:17:52 53° SSE 17:17:56 53° SSE
SKYMED 2 3.7 17:13:53 10° NNE 17:18:15 75° WNW 17:22:35 10° SSW
Okean-O 2.9 17:14:54 10° S 17:19:19 70° WSW 17:23:46 10° NNW
Cosmos 1689 Rocket 2.5 17:16:42 10° N 17:19:35 58° WNW 17:22:25 10° SSW
Cosmos 2369 4.2 17:14:54 10° S 17:20:02 36° ESE 17:21:09 33° E
Cosmos 2151 3.9 17:16:27 10° N 17:19:28 30° NE 17:19:28 30° NE
Meteor 2-15 4.3 17:16:11 10° S 17:22:17 70° E 17:28:24 10° NNE
SL-08 RB Rocket 4.1 17:22:30 38° ENE 17:22:37 38° ENE 17:26:48 10° N
Cosmos 1844 Rocket 4.4 17:19:05 10° NNW 17:22:37 16° NNE 17:23:39 16° NE
Cosmos 1656 3.6 17:17:56 10° SSW 17:23:29 72° ESE 17:28:36 13° NE
Cosmos 1745 Rocket 4.0 17:17:41 10° N 17:24:01 87° E 17:30:22 10° S
Cosmos 1400 Rocket 3.4 17:21:49 10° SSW 17:25:53 60° WNW 17:29:56 10° N
PSLV R/B 4.1 17:22:20 10° NNE 17:26:33 74° WNW 17:30:41 10° SSW
H-2A R/B 2.1 17:21:39 10° SSE 17:27:04 78° ENE 17:32:33 10° NNW
Ariane Rocket 3.6 17:27:38 35° ENE 17:27:46 35° ENE 17:32:23 10° N
Geosat 4.2 17:26:30 36° ENE 17:27:54 46° ESE 17:32:43 10° S
GEOS 3 Rocket 3.7 17:24:33 22° SE 17:28:07 83° SW 17:33:34 10° NW
Cosmos 2227 Rocket 2.9 17:23:12 10° NW 17:28:41 53° WSW 17:34:10 10° S
Cosmos 2058 2.9 17:24:44 10° NNW 17:28:51 78° W 17:32:56 10° S
CZ-4 R/B 1.9 17:25:53 10° S 17:29:42 55° W 17:33:31 10° NNW
Cosmos 1892 3.5 17:26:21 10° NNW 17:30:08 53° W 17:33:56 10° S
Cosmos 220 Rocket 4.0 17:29:29 10° S 17:33:46 58° ESE 17:34:08 56° E
Timation 1 Rocket 4.2 17:28:14 10° NNW 17:34:18 77° NE 17:37:24 30° SE
Cosmos 1408 2.8 17:30:45 10° NNW 17:34:24 69° W 17:37:15 16° S
Cosmos 2263 Rocket 2.6 17:29:17 10° NNW 17:34:42 41° NE 17:35:34 39° ENE
CSL-04 Rocket 3.6 17:29:50 10° SSE 17:35:23 89° ENE 17:40:57 10° NNW
BREEZE-M R/B 3.4 17:30:55 10° W 17:36:56 51° SSW 17:37:08 50° S
NOSS 3-4 (A) 3.8 17:34:27 10° NW 17:41:13 68° NE 17:44:11 38° ESE
NOSS 3-4 (C) 3.8 17:34:34 10° NW 17:41:19 68° NE 17:44:16 38° ESE
CZ-4C R/B 3.3 17:35:43 10° NW 17:42:00 44° NNE 17:44:25 34° ENE
Meteor 2-1 Rocket 4.0 17:37:11 10° S 17:42:41 79° E 17:48:15 10° NNE
Cosmos 2058 Rocket 4.5 17:43:24 10° SW 17:47:38 40° WNW 17:51:54 10° N
Cosmos 1697 Rocket 2.6 17:42:32 10° SSW 17:48:04 63° ESE 17:49:37 45° ENE
SeaSat 1 2.3 17:46:27 44° SSE 17:48:05 89° ENE 17:53:04 10° NNW
Cosmos 1346 Rocket 3.9 17:45:17 10° NNW 17:49:06 44° W 17:52:54 10° SSW
SL-4 R/B 2.1 17:45:49 10° W 17:49:04 61° SW 17:49:04 61° SW
CRYOSAT 2 4.3 17:45:49 10° N 17:50:43 83° W 17:55:35 10° S
Cosmos 1825 2.4 17:47:37 10° NNW 17:51:25 69° W 17:51:38 67° SW
USA 305 3.6 17:48:50 10° WNW 17:52:57 45° SSW 17:53:27 43° SSW
NOSS 3-3 (A) 3.9 17:47:15 10° SSW 17:53:01 59° SE 17:54:18 49° E
NOSS 3-3 (C) 3.9 17:47:22 10° SSW 17:53:09 59° SE 17:54:24 50° E
Cosmos 1709 Rocket 3.9 17:47:23 10° N 17:53:49 85° E 17:59:42 13° S
USA 215 3.2 17:51:39 45° E 17:53:53 76° NNE 18:00:26 10° WNW
Cosmos 1315 Rocket 3.1 17:53:02 10° SSW 17:56:20 59° SW 17:56:20 59° SW
Cosmos 44 4.1 17:52:34 10° WSW 17:57:01 46° NW 17:59:04 29° NNE
USA 306 3.7 17:55:15 10° WNW 17:59:19 42° SW 17:59:35 41° SSW
BREEZE-M R/B 4.2 17:59:01 10° W 18:03:25 60° SSW 18:05:18 45° SE
ATLAS 2AS CENTAUR R/B 2.8 17:55:47 10° NW 18:03:28 72° NE 18:05:17 52° ESE
SJ 16-02 3.5 18:02:49 10° N 18:04:08 16° N 18:04:08 16° N
MOS 1 Rocket 3.4 18:02:30 10° N 18:07:07 74° WNW 18:12:01 10° SSW
Cosmos 2074 Rocket 4.4 18:01:14 10° N 18:06:21 45° NE 18:06:21 45° NE
Cosmos 2297 Rocket 4.3 18:03:40 10° NW 18:08:08 24° WSW 18:12:34 10° SSW
Cosmos 1980 Rocket 3.7 18:05:18 10° S 18:07:19 22° S 18:07:19 22° S
IRS-1A Rocket 4.1 18:10:34 74° E 18:10:46 75° ENE 18:16:18 10° NNW
Meteor 2-17 Rocket 4.3 18:05:07 10° N 18:10:59 63° ENE 18:10:59 63° ENE
Cosmos 1777 Rocket 3.9 18:05:56 10° NNW 18:10:51 74° NNE 18:10:51 74° NNE
COSMOS 2455 4.2 18:06:45 10° NNW 18:11:36 24° NNE 18:12:00 24° NNE
Cosmos 883 Rocket 4.3 18:06:16 10° S 18:12:27 89° WNW 18:18:37 10° N
Cosmos 2315 Rocket 3.8 18:10:15 10° S 18:16:27 82° E 18:22:41 10° NNE
MOS 1 4.1 18:18:02 76° ENE 18:18:02 76° ENE 18:23:37 10° NNW
Resurs 01 Rocket 4.1 18:24:28 13° N 18:24:28 13° N 18:25:00 10° N
MetOp-A 4.2 18:22:01 68° N 18:22:01 68° N 18:26:45 10° NNW
Cosmos 2227 4.1 18:16:27 10° NNW 18:21:43 74° NNE 18:21:43 74° NNE
Lacrosse 5 2.3 18:19:09 10° WNW 18:23:30 54° NNW 18:23:30 54° NNW
Cosmos 2360 4.3 18:21:14 10° SSW 18:26:15 70° SSW 18:26:15 70° SSW
Cosmos 1455 4.4 18:29:28 10° SW 18:31:13 21° WSW 18:31:13 21° WSW
Meteor 2-3 Rocket 3.8 18:29:31 10° NNW 18:34:44 74° NNW 18:34:44 74° NNW
Cosmos 2278 Rocket 4.3 18:51:21 10° NNW 18:53:39 16° N 18:53:39 16° N
ATLAS 5 CENTAUR R/B 3.8 18:52:06 10° NW 18:55:00 24° N 18:55:00 24° N
Ariane Rocket 4.4 19:07:51 36° WNW 19:07:51 36° WNW 19:11:32 10° NNW
H-2A R/B 4.5 19:03:10 10° SW 19:07:06 20° W 19:11:05 10° NW
Cosmos 1844 Rocket 4.3 19:02:30 10° NNW 19:05:18 28° N 19:05:18 28° N
Cosmos 2263 Rocket 3.4 19:13:18 10° NW 19:17:16 38° WNW 19:17:16 38° WNW
CZ-4C R/B 3.3 19:24:12 10° NW 19:29:36 59° WNW 19:29:36 59° WNW
Cosmos 1697 Rocket 4.3 19:27:24 10° WSW 19:31:25 30° WNW 19:31:25 30° WNW
USA 215 4.2 19:39:00 41° W 19:39:00 41° W 19:43:32 10° WNW
ATLAS 2AS CENTAUR R/B 4.0 19:47:17 10° NW 19:52:43 35° W 19:52:43 35° W
